Satellite: POLLUX
Catalog number: 35693
Epoch time:      09274.73012306
Element set:      63
Inclination:      051.6389 deg
RA of node:       116.3004 deg
Eccentricity:    0.0003159
Arg of perigee:   236.9581 deg
Mean anomaly:     123.1079 deg
Mean motion:   15.82561244 rev/day
Decay rate:     3.1653e-04 rev/day^2
Epoch rev:             997
Checksum:              289

Satellite: CASTOR
Catalog number: 35694
Epoch time:      09273.80762553
Element set:    0060
Inclination:      051.6404 deg
RA of node:       121.4040 deg
Eccentricity:    0.0003013
Arg of perigee:   247.4933 deg
Mean anomaly:     112.5827 deg
Mean motion:   15.81248934 rev/day
Decay rate:     1.6478e-04 rev/day^2
Epoch rev:           00982
Checksum:              284

Satellite: METEOR-M
Catalog number: 35865
Epoch time:      09274.16635696
Element set:      13
Inclination:      098.7998 deg
RA of node:       324.3052 deg
Eccentricity:    0.0003207
Arg of perigee:   049.6494 deg
Mean anomaly:     310.4916 deg
Mean motion:   14.21827409 rev/day
Decay rate:       1.76e-06 rev/day^2
Epoch rev:             191
Checksum:              309

Satellite: STERKH-2
Catalog number: 35866
Epoch time:      09273.66948054
Element set:    0016
Inclination:      098.8005 deg
RA of node:       323.8238 deg
Eccentricity:    0.0003940
Arg of perigee:   043.9397 deg
Mean anomaly:     316.2066 deg
Mean motion:   14.22296780 rev/day
Decay rate:       1.78e-06 rev/day^2
Epoch rev:           00184
Checksum:              314

Satellite: FREGAT-I
Catalog number: 35867
Epoch time:      09274.72543441
Element set:      26
Inclination:      097.3735 deg
RA of node:       324.5402 deg
Eccentricity:    0.0009030
Arg of perigee:   235.3065 deg
Mean anomaly:     124.7206 deg
Mean motion:   15.22715157 rev/day
Decay rate:      2.264e-05 rev/day^2
Epoch rev:             213
Checksum:              266

Satellite: SUMBDILA
Catalog number: 35870
Epoch time:      09274.79035001
Element set:      37
Inclination:      097.3714 deg
RA of node:       324.5940 deg
Eccentricity:    0.0010355
Arg of perigee:   241.2516 deg
Mean anomaly:     118.8200 deg
Mean motion:   15.22796602 rev/day
Decay rate:       9.79e-06 rev/day^2
Epoch rev:             214
Checksum:              274

/EX



_______________________________________________
Via the Keps mailing list courtesy of AMSAT-NA
http://amsat.org/mailman/listinfo/keps

--- ViaMAIL!/WC v1.60d
 * Origin: Chowdanet (401-724-4410) telnet://chowdanet.com  (1:323/120)